Theta_e
355 354 354 355 355 355 353 352 351 351 354 354 352 353 352 348 343 342 345 343 350 351 349 352 352 352 352 354 354 353 353 353 355
354 354 353 354 354 354 352 351 351 352 352 352 351 353 350 341 340 340 341 343 349 349 349 350 350 350 351 352 352 352 351 352 354
354 353 353 353 353 352 352 351 351 351 350 352 350 350 347 341 338 338 339 346 346 347 346 346 348 349 349 349 350 350 349 351 352
352 352 352 352 352 351 351 351 350 350 349 349 349 347 344 332 334 337 337 344 342 342 342 343 343 344 346 347 347 348 348 347 348
350 351 352 351 351 351 350 349 349 348 349 348 348 346 340 330 330 332 335 340 341 340 339 340 341 343 343 344 345 345 345 345 343
344 349 350 350 350 350 349 348 347 345 345 344 342 340 331 330 330 331 338 339 339 339 338 338 338 339 339 340 340 340 340 341 341
340 346 348 349 349 349 349 347 346 341 333 334 338 330 329 328 329 330 338 338 338 338 337 337 337 337 337 336 336 336 336 336 337
338 339 341 339 344 341 341 339 339 332 334 333 331 329 328 327 328 333 335 336 336 337 336 335 335 335 335 335 335 335 335 334 334
334 337 339 338 337 335 334 333 328 331 333 329 325 327 326 327 326 332 337 336 335 336 336 335 335 334 334 334 334 333 333 333 333
329 332 337 337 336 332 328 323 323 322 322 324 326 325 326 324 327 327 332 337 335 335 335 335 335 334 334 333 333 332 332 332 332
328 327 333 335 334 327 323 322 321 322 322 320 325 325 325 325 324 325 329 335 335 334 334 334 334 334 333 332 332 331 331 330 331
325 329 334 335 326 322 321 321 321 320 321 319 321 323 323 325 324 324 324 327 334 334 332 332 333 332 332 331 330 330 329 329 329
326 330 334 336 326 323 320 320 319 319 319 318 319 320 323 323 324 323 322 321 323 330 333 331 331 331 331 330 329 329 328 328 328
331 331 334 333 325 322 321 320 319 318 317 319 318 318 318 319 322 320 321 322 321 322 332 332 331 329 329 329 328 328 327 327 326
334 330 332 328 323 320 320 319 319 318 316 319 316 315 315 316 317 318 321 321 320 319 318 317 322 328 327 327 327 326 326 325 325
332 331 329 325 323 321 319 318 317 316 316 314 312 312 312 312 314 315 316 316 317 317 318 315 315 318 325 325 325 325 324 323 323
330 329 325 324 322 322 319 318 316 315 314 310 309 305 307 309 312 311 314 312 314 314 314 314 313 312 312 315 321 322 321 321 320
329 327 326 324 323 322 320 319 317 313 312 312 308 304 302 305 307 307 308 308 308 309 309 311 312 311 308 313 316 319 317 316 316
327 326 326 325 323 322 321 321 319 316 311 312 313 309 308 303 301 305 307 307 307 307 307 308 309 309 310 314 314 317 314 312 312
323 322 323 324 323 323 322 321 319 317 313 312 308 307 307 306 304 300 303 306 307 307 306 306 306 307 309 309 315 316 313 311 310
Wind_Speed
12 12 13 14 15 16 17 16 16 15 12 12 16 20 21 16 13 11 14 13 24 26 25 25 26 27 27 26 27 29 29 29 28
13 13 12 14 14 15 16 16 16 15 13 15 18 21 22 14 13 12 11 14 23 25 26 25 26 27 28 27 27 28 30 29 28
13 14 13 14 14 14 15 15 16 14 14 12 12 19 18 13 12 11 10 20 24 25 25 25 25 26 28 28 29 30 30 30 30
13 14 14 14 15 14 15 16 16 13 13 12 22 19 18 13 10 11 9 21 21 23 24 24 24 25 26 27 28 30 30 30 31
11 12 14 14 15 14 15 16 14 12 11 11 11 13 20 12 9 9 9 20 23 23 23 24 25 26 26 27 28 28 29 29 30
7 8 12 15 16 16 16 17 13 9 8 7 5 15 9 10 7 6 18 21 22 23 24 24 25 25 26 26 27 27 28 28 29
7 10 12 14 16 17 17 17 16 7 2 1 4 9 12 8 7 7 18 20 22 23 23 24 24 25 26 27 27 27 28 28 28
2 4 4 3 10 5 6 7 3 6 3 2 4 13 11 6 6 10 18 19 21 22 23 24 24 25 25 26 27 27 27 27 27
8 4 6 5 4 6 5 3 4 5 6 4 12 14 10 6 4 10 16 19 20 22 23 23 24 24 25 25 26 26 26 27 27
5 6 4 6 5 5 5 5 3 3 2 5 13 14 13 9 5 4 17 17 19 21 22 23 23 23 24 24 25 25 25 26 26
7 4 7 3 4 3 5 5 4 3 4 6 11 15 12 11 6 4 8 16 17 19 20 21 21 22 22 23 23 23 24 24 25
10 8 5 5 5 7 6 6 5 6 6 7 8 11 12 11 9 6 5 7 14 16 19 19 20 20 21 21 21 22 22 22 23
6 8 7 7 6 6 6 5 4 5 5 4 5 6 10 12 11 8 6 4 5 9 15 17 18 18 19 20 19 20 20 20 20
9 7 9 9 5 7 8 4 5 4 4 5 5 5 6 7 7 8 8 7 6 4 12 13 14 16 17 17 18 18 18 18 18
10 5 7 5 4 4 6 7 4 5 5 6 5 5 5 5 5 6 7 7 8 6 6 5 6 13 14 14 15 15 16 15 15
11 5 7 6 6 6 6 5 7 4 4 5 4 4 4 5 5 5 5 5 6 6 5 3 4 5 12 11 11 12 13 12 12
11 11 8 8 7 7 5 5 3 3 4 5 5 3 4 2 4 5 6 6 4 5 4 7 6 5 4 7 8 7 9 10 9
14 12 10 9 7 7 7 5 6 5 3 7 6 4 4 3 1 3 4 6 3 3 5 5 4 7 5 7 6 7 6 6 7
10 13 10 7 6 8 9 6 4 5 5 4 2 2 6 4 2 0 3 5 5 5 3 4 4 5 4 9 10 8 6 4 4
7 5 12 9 6 8 11 8 5 4 3 3 1 3 1 3 5 4 2 3 4 5 4 5 4 5 4 4 6 8 7 5 4
Wind_Direction
115 111 109 105 106 106 103 105 104 100 77 65 69 64 62 71 71 63 59 64 68 65 62 59 59 59 60 63 61 58 56 54 54
124 116 109 107 109 107 112 113 109 100 86 90 84 79 70 64 61 62 58 66 68 66 63 59 58 59 60 61 64 61 58 55 53
129 119 118 112 110 109 110 114 110 100 94 76 74 89 89 81 71 62 59 67 69 67 65 63 60 60 62 60 62 64 61 57 56
134 126 118 116 114 114 115 117 110 95 89 79 75 85 73 64 67 66 63 66 73 72 72 69 64 62 61 61 62 61 62 60 57
137 133 127 124 118 118 116 116 105 105 84 54 46 60 78 73 67 68 77 79 75 74 73 73 73 69 65 63 63 63 64 62 60
138 160 138 130 124 120 118 118 115 96 74 69 49 80 84 77 70 76 82 81 80 77 75 73 72 72 71 70 68 66 64 63 63
178 132 148 139 131 127 133 137 137 119 80 338 53 97 91 82 81 80 83 84 82 81 79 77 75 73 72 72 71 69 68 67 66
18 121 129 125 136 122 134 148 169 152 137 272 92 92 88 86 85 82 87 85 85 85 82 80 78 76 75 74 73 72 70 68 66
346 343 149 153 170 165 155 178 173 161 180 169 105 107 105 92 89 91 90 90 90 88 86 85 82 80 78 76 75 73 72 71 68
295 314 274 178 189 166 156 120 100 110 252 107 116 109 105 100 91 88 98 92 92 91 89 86 85 83 81 78 76 74 72 71 70
181 263 282 282 208 145 115 130 157 184 98 79 100 110 114 109 101 83 96 94 92 92 91 89 87 84 82 79 77 75 73 72 70
187 173 244 272 133 101 88 82 74 72 77 83 96 116 120 119 116 95 76 76 84 92 92 90 88 87 85 83 80 77 75 73 72
198 159 187 237 139 127 108 111 98 98 99 99 89 108 129 131 132 129 117 92 69 77 94 94 92 90 88 86 83 81 80 76 72
187 193 179 189 166 140 144 134 132 127 110 109 93 87 91 122 129 128 129 121 103 80 87 85 92 94 92 92 90 87 86 82 78
182 187 160 165 123 127 130 121 130 126 128 114 96 91 96 104 105 108 98 125 128 130 115 97 83 94 96 96 96 95 92 89 88
170 180 160 145 121 136 146 122 127 122 117 98 72 69 111 112 124 114 114 123 137 146 160 132 110 103 95 89 97 98 96 91 86
161 161 155 138 127 135 122 115 105 109 122 124 95 101 2 55 125 125 141 160 151 156 151 140 146 130 119 106 81 84 96 90 82
161 144 149 136 136 150 117 128 122 139 124 147 139 115 190 133 199 152 145 144 126 125 105 110 129 142 138 121 114 95 85 85 77
158 135 134 134 139 140 123 138 147 134 160 187 259 182 148 154 123 329 169 145 135 124 71 52 44 82 129 148 156 135 126 116 111
119 94 139 157 124 146 148 138 150 151 139 144 131 29 52 136 139 163 171 78 88 81 70 39 50 38 55 103 146 153 160 162 159